Olympia, WA
on Monday, January 14, 2013

Monday
Previous Day Next Day
Daily Summary
 ActualAverageRecord
Temperature
Mean Temperature °F 40°F  
Max Temperature 33°F 46°F 58°F (1973)
Min Temperature 19°F 34°F 6°F (1950)
Degree Days
Heating Degree Days 39 25  
Month to date heating degree days 406 360  
Since 1 July heating degree days 2569 2630  
Cooling Degree Days 0 0  
Month to date cooling degree days 0 0  
Year to date cooling degree days 0 0  
Moisture
Dew Point 27°F   
Average Humidity 96    
Maximum Humidity 100    
Minimum Humidity 91    
Precipitation
Precipitation 0.03 in 0.27 in 1.93 in (1976)
Month to date precipitation 2.79 3.62  
Year to date precipitation 2.79 3.62  
Wind
Wind Speed 2 mph   
Max Wind Speed 8 mph   
Max Gust Speed 10 mph   
Visibility 3 miles   
Events Snow   

Key: T is trace of precipitation, MM is missing value
Source: NWS Daily Summary
Time(PST)TemperatureDew PointHumidity Pressure Visibility Wind DirectionWind SpeedGust SpeedPrecipitationEvents Conditions
12:03 AM 21.2°F 21.2°F 100% 30.49 in 3.0 miles South 3.5 mph - N/A   Clear
12:54 AM 21.9°F 19.0°F 89% 30.50 in 4.0 miles Calm Calm - N/A   Clear
1:54 AM 23.0°F 21.2°F 93% 30.48 in 5.0 miles South 4.6 mph - N/A   Clear
2:54 AM 21.9°F 19.9°F 92% 30.51 in 5.0 miles Calm Calm - N/A   Clear
3:54 AM 21.0°F 19.0°F 92% 30.51 in 5.0 miles Calm Calm - N/A   Clear
4:54 AM 19.9°F 18.0°F 92% 30.51 in 5.0 miles South 3.5 mph - N/A   Clear
5:54 AM 21.0°F 19.0°F 92% 30.51 in 6.0 miles South 4.6 mph - N/A   Clear
6:54 AM 23.0°F 21.0°F 92% 30.52 in 7.0 miles SSW 5.8 mph - N/A   Clear
7:54 AM 23.0°F 21.0°F 92% 30.51 in 6.0 miles SW 6.9 mph - N/A   Mostly Cloudy
8:12 AM 23.0°F 21.9°F 96% 30.52 in 3.0 miles SW 3.5 mph - N/A   Overcast
8:54 AM 25.0°F 24.1°F 96% 30.53 in 3.0 miles Calm Calm - N/A   Overcast
9:54 AM 26.1°F 25.0°F 96% 30.53 in 4.0 miles SW 5.8 mph - N/A   Overcast
10:54 AM 28.0°F 27.0°F 96% 30.54 in 4.0 miles SW 4.6 mph - N/A   Overcast
11:54 AM 28.9°F 28.0°F 96% 30.53 in 3.0 miles SW 4.6 mph - 0.00 in Snow Light Snow
12:27 PM 30.0°F 28.0°F 92% 30.51 in 2.0 miles SW 3.5 mph - 0.00 in   Overcast
12:54 PM 30.0°F 28.9°F 96% 30.53 in 2.0 miles West 4.6 mph - 0.00 in   Overcast
1:54 PM 30.9°F 30.0°F 96% 30.53 in 2.0 miles Calm Calm - N/A   Overcast
2:54 PM 30.9°F 30.0°F 96% 30.53 in 2.0 miles WSW 4.6 mph - 0.00 in Snow Light Snow
3:54 PM 30.9°F 30.0°F 96% 30.54 in 2.0 miles Calm Calm - 0.01 in Snow Light Snow
3:56 PM 30.9°F 30.0°F 96% 30.53 in 1.8 miles Calm Calm - 0.00 in Snow Light Snow
4:02 PM 30.9°F 30.9°F 100% 30.53 in 2.0 miles Calm Calm - 0.01 in Snow Light Snow
4:38 PM 32.0°F 30.0°F 92% 30.52 in 2.0 miles SW 3.5 mph - 0.01 in   Light Freezing Drizzle
4:48 PM 32.0°F 30.2°F 93% 30.52 in 2.0 miles Calm Calm - 0.01 in   Light Freezing Drizzle
4:54 PM 32.0°F 30.0°F 92% 30.53 in 2.0 miles Calm Calm - 0.01 in Snow Light Snow
5:54 PM 32.0°F 30.9°F 96% 30.54 in 2.0 miles Calm Calm - 0.01 in Snow Light Snow
6:54 PM 32.0°F 32.0°F 100% 30.55 in 2.5 miles SE 3.5 mph - 0.00 in   Light Freezing Drizzle
7:02 PM 32.0°F 30.9°F 96% 30.54 in 2.5 miles ESE 3.5 mph - 0.00 in   Overcast
7:26 PM 32.0°F 30.9°F 96% 30.55 in 1.8 miles ESE 4.6 mph - 0.00 in   Overcast
7:34 PM 32.0°F 30.9°F 96% 30.55 in 2.0 miles SE 3.5 mph - 0.00 in   Overcast
7:46 PM 32.0°F 32.0°F 100% 30.55 in 1.8 miles Calm Calm - 0.00 in   Overcast
7:54 PM 32.0°F 32.0°F 100% 30.56 in 1.8 miles Calm Calm - 0.00 in   Overcast
8:01 PM 32.0°F 32.0°F 100% 30.55 in 2.0 miles Calm Calm - N/A   Overcast
8:54 PM 32.0°F 32.0°F 100% 30.56 in 2.0 miles Calm Calm - N/A   Overcast
9:37 PM 32.0°F 32.0°F 100% 30.56 in 2.5 miles Calm Calm - N/A   Overcast
9:54 PM 32.0°F 32.0°F 100% 30.56 in 2.0 miles Calm Calm - N/A   Overcast
10:54 PM 32.0°F 32.0°F 100% 30.58 in 2.5 miles Calm Calm - N/A   Overcast
11:54 PM 32.0°F 32.0°F 100% 30.58 in 2.0 miles Calm Calm - N/A   Overcast
Moon Phase
Jan. 14 Jan. 18 Jan. 26 Feb. 03 Feb. 10
Sunrise:07:53 AM (PST) Moon Rise:09:13 AM (PST)1/14
Sunset:04:48 PM (PST) Moon Set:08:58 PM (PST)1/14

Copyright © 2014 The Weather Underground, Inc.